timestamp,3576000,7076000,10138000,14076000,21076000,28076000
2020/12/05 23:39:46+0000,-40.55,-46.41,-34.24,-48.46,-55.53,-52.49
2020/12/05 23:40:38+0000,-40.38,-46.68,-34.35,-48.84,-55.81,-51.88
2020/12/05 23:41:37+0000,-40.77,-45.95,-33.79,-47.87,-54.94,-52.64
2020/12/05 23:42:29+0000,-40.90,-45.66,-33.63,-51.50,-55.54,-52.19
2020/12/05 23:43:21+0000,-40.71,-46.54,-31.14,-50.88,-55.31,-52.33
2020/12/05 23:44:13+0000,-40.48,-46.30,-33.62,-47.02,-55.00,-52.34
2020/12/05 23:45:05+0000,-40.82,-45.99,-33.87,-48.30,-54.99,-52.27
2020/12/05 23:45:57+0000,-40.14,-45.61,-34.56,-51.37,-55.13,-52.49
2020/12/05 23:46:50+0000,-39.76,-44.50,-33.50,-52.25,-54.91,-51.56
2020/12/05 23:47:42+0000,-40.16,-45.72,-34.29,-48.05,-54.74,-52.75
2020/12/05 23:48:34+0000,-39.48,-44.19,-33.91,-52.44,-56.08,-52.50
2020/12/05 23:49:26+0000,-38.97,-45.45,-33.41,-51.08,-55.55,-52.03
2020/12/05 23:50:18+0000,-38.91,-44.14,-32.69,-52.34,-54.96,-52.06
2020/12/05 23:51:18+0000,-39.13,-45.86,-33.58,-52.12,-55.77,-52.24
2020/12/05 23:52:10+0000,-39.88,-43.08,-33.60,-49.98,-55.22,-52.05
2020/12/05 23:53:02+0000,-40.52,-44.36,-33.94,-50.91,-55.91,-53.37
2020/12/05 23:53:54+0000,-40.78,-45.78,-33.56,-51.13,-55.89,-52.73
2020/12/05 23:54:46+0000,-39.26,-43.42,-33.92,-50.39,-56.07,-51.88
2020/12/05 23:55:38+0000,-40.10,-44.48,-34.13,-49.74,-56.33,-52.31
2020/12/05 23:56:30+0000,-39.73,-45.15,-33.72,-50.72,-55.99,-52.67
2020/12/05 23:57:22+0000,-39.68,-44.40,-34.16,-51.06,-56.02,-52.44
2020/12/05 23:58:14+0000,-39.65,-45.10,-33.07,-50.46,-55.76,-52.41
2020/12/05 23:59:06+0000,-40.06,-46.46,-34.40,-51.04,-56.08,-52.66
2020/12/05 23:59:58+0000,-38.87,-44.35,-34.73,-50.99,-56.13,-52.26
2020/12/06 00:00:54+0000,-39.71,-44.66,-34.10,-50.69,-55.90,-52.64
2020/12/06 00:01:56+0000,-39.71,-44.65,-34.26,-50.89,-56.17,-52.89
2020/12/06 00:02:48+0000,-38.70,-43.88,-33.00,-51.32,-55.76,-52.63
2020/12/06 00:03:40+0000,-39.83,-45.34,-33.94,-49.74,-55.52,-52.16
2020/12/06 00:04:32+0000,-39.86,-44.77,-33.68,-48.81,-55.85,-51.29
2020/12/06 00:05:24+0000,-39.65,-44.48,-33.71,-50.33,-56.09,-52.02
2020/12/06 00:06:16+0000,-39.73,-43.98,-33.70,-47.97,-55.84,-52.01
2020/12/06 00:07:08+0000,-39.12,-43.49,-34.78,-48.96,-56.06,-52.75
2020/12/06 00:08:00+0000,-40.03,-44.97,-34.47,-49.50,-55.92,-52.16
2020/12/06 00:08:52+0000,-39.62,-45.42,-34.20,-50.36,-55.64,-53.04
2020/12/06 00:09:44+0000,-40.39,-44.90,-33.27,-49.13,-55.44,-52.49
2020/12/06 00:10:36+0000,-39.57,-45.73,-34.62,-49.06,-55.93,-52.55
2020/12/06 00:11:36+0000,-40.25,-46.52,-34.77,-49.76,-55.63,-52.49
2020/12/06 00:12:28+0000,-39.54,-45.54,-34.97,-50.08,-55.74,-52.55
2020/12/06 00:13:20+0000,-39.71,-43.28,-33.49,-49.77,-56.17,-52.90
2020/12/06 00:14:12+0000,-39.18,-44.20,-34.29,-48.86,-55.94,-52.33
2020/12/06 00:15:04+0000,-39.42,-44.42,-34.13,-49.83,-55.84,-52.36
2020/12/06 00:15:56+0000,-40.43,-44.85,-34.32,-49.49,-55.70,-52.52
2020/12/06 00:16:48+0000,-40.55,-44.15,-34.10,-49.46,-55.66,-52.10
2020/12/06 00:17:40+0000,-40.12,-42.30,-33.87,-49.44,-55.62,-52.46
2020/12/06 00:18:32+0000,-38.98,-45.37,-33.98,-47.73,-55.07,-52.29
2020/12/06 00:19:24+0000,-39.98,-45.69,-34.09,-48.98,-55.60,-52.77
2020/12/06 00:20:16+0000,-40.63,-42.38,-33.63,-48.76,-55.99,-52.99
2020/12/06 00:21:16+0000,-40.19,-43.61,-33.76,-48.66,-56.27,-52.87
2020/12/06 00:22:08+0000,-40.61,-45.83,-34.38,-49.13,-55.96,-52.74
2020/12/06 00:23:00+0000,-40.25,-44.33,-33.83,-48.30,-55.80,-52.19
2020/12/06 00:23:52+0000,-40.96,-47.16,-34.13,-48.53,-55.69,-52.92
2020/12/06 00:24:44+0000,-40.20,-45.29,-33.57,-48.59,-55.79,-53.28
2020/12/06 00:25:36+0000,-40.42,-46.74,-34.19,-48.21,-55.11,-53.03
2020/12/06 00:26:29+0000,-40.88,-44.57,-34.85,-48.90,-54.67,-52.32
2020/12/06 00:27:21+0000,-40.60,-46.99,-33.53,-49.10,-55.97,-52.69
2020/12/06 00:28:13+0000,-40.19,-44.43,-34.93,-47.98,-55.71,-52.75
2020/12/06 00:29:05+0000,-39.80,-44.75,-34.16,-48.64,-55.11,-53.18
2020/12/06 00:29:57+0000,-39.71,-45.42,-34.87,-48.50,-55.64,-52.46
2020/12/06 00:30:49+0000,-39.18,-43.89,-34.50,-48.77,-54.79,-53.04
2020/12/06 00:31:49+0000,-39.53,-45.19,-33.64,-48.36,-55.24,-52.72
2020/12/06 00:32:41+0000,-39.93,-43.86,-34.65,-48.54,-56.02,-52.94
2020/12/06 00:33:33+0000,-40.24,-45.77,-34.74,-48.94,-56.06,-52.57
2020/12/06 00:34:25+0000,-39.93,-43.94,-33.63,-48.33,-56.08,-52.55
2020/12/06 00:35:17+0000,-39.83,-43.60,-33.84,-48.61,-55.25,-52.72
2020/12/06 00:36:09+0000,-40.90,-43.74,-33.59,-48.86,-55.01,-52.81
2020/12/06 00:37:01+0000,-40.73,-43.99,-33.69,-48.58,-55.86,-52.62
2020/12/06 00:37:53+0000,-38.31,-44.98,-34.43,-48.18,-55.55,-52.48
2020/12/06 00:38:45+0000,-40.62,-45.57,-34.05,-49.35,-55.75,-52.37
2020/12/06 00:39:37+0000,-40.46,-46.69,-33.60,-49.12,-55.85,-53.27
2020/12/06 00:40:30+0000,-40.26,-44.35,-33.55,-49.49,-55.21,-52.23
2020/12/06 00:41:30+0000,-40.96,-44.03,-33.58,-49.59,-55.08,-52.60
2020/12/06 00:42:22+0000,-39.81,-45.72,-33.65,-49.63,-55.40,-52.56
2020/12/06 00:43:14+0000,-39.77,-44.27,-34.03,-48.88,-55.88,-53.06
2020/12/06 00:44:06+0000,-40.27,-45.54,-33.98,-49.61,-54.54,-52.16
2020/12/06 00:44:58+0000,-35.08,-42.07,-33.92,-49.88,-55.09,-53.01
2020/12/06 00:45:50+0000,-35.03,-44.56,-33.06,-50.06,-56.17,-53.18
2020/12/06 00:46:42+0000,-38.43,-44.51,-33.66,-49.77,-54.39,-52.78
2020/12/06 00:47:34+0000,-38.91,-44.03,-33.77,-50.06,-54.72,-52.99
2020/12/06 00:48:26+0000,-39.34,-44.65,-33.16,-49.67,-54.32,-52.42
2020/12/06 00:49:18+0000,-39.19,-45.61,-32.62,-49.66,-54.78,-52.60
2020/12/06 00:50:10+0000,-36.46,-45.58,-34.50,-49.64,-54.67,-53.18
2020/12/06 00:51:10+0000,-36.09,-44.29,-34.92,-49.26,-55.13,-52.73
2020/12/06 00:52:02+0000,-35.68,-45.69,-34.32,-49.58,-54.54,-52.33
2020/12/06 00:52:54+0000,-39.67,-45.09,-33.89,-50.01,-54.63,-53.02
2020/12/06 00:53:46+0000,-39.50,-44.89,-34.39,-49.73,-55.31,-52.62
2020/12/06 00:54:38+0000,-35.87,-46.23,-34.15,-49.66,-54.80,-53.20
2020/12/06 00:55:30+0000,-38.43,-44.30,-34.43,-49.80,-54.99,-52.56
2020/12/06 00:56:23+0000,-39.12,-45.46,-33.84,-49.41,-54.91,-52.43
2020/12/06 00:57:15+0000,-36.21,-44.63,-34.37,-50.24,-54.35,-53.12
2020/12/06 00:58:07+0000,-35.65,-45.02,-34.52,-50.35,-54.89,-52.66
2020/12/06 00:58:59+0000,-39.42,-43.78,-33.26,-49.62,-54.93,-53.53
2020/12/06 00:59:51+0000,-39.68,-44.04,-34.21,-49.56,-55.04,-52.82
2020/12/06 01:00:43+0000,-39.47,-45.14,-34.46,-49.66,-54.91,-52.54
2020/12/06 01:01:43+0000,-39.75,-44.43,-34.68,-50.38,-55.13,-52.84
2020/12/06 01:02:35+0000,-39.57,-46.92,-34.73,-49.83,-55.26,-53.03
2020/12/06 01:03:28+0000,-39.63,-43.09,-34.14,-49.94,-55.20,-52.66
2020/12/06 01:04:20+0000,-39.57,-44.75,-33.87,-50.05,-55.98,-53.26
2020/12/06 01:05:12+0000,-36.82,-43.07,-34.50,-49.36,-55.85,-53.10
2020/12/06 01:06:04+0000,-37.65,-43.89,-34.12,-49.90,-55.22,-52.73
2020/12/06 01:06:56+0000,-39.54,-44.05,-34.09,-50.24,-55.15,-52.63
2020/12/06 01:07:48+0000,-39.36,-43.99,-34.13,-49.83,-55.15,-52.54
2020/12/06 01:08:40+0000,-37.77,-44.54,-34.11,-49.22,-55.14,-53.45
2020/12/06 01:09:32+0000,-36.92,-45.55,-34.16,-49.49,-55.66,-54.48
2020/12/06 01:10:24+0000,-39.44,-43.80,-33.88,-49.35,-55.35,-55.39
2020/12/06 01:11:31+0000,-36.76,-44.53,-33.70,-49.51,-54.51,-55.16
2020/12/06 01:12:23+0000,-38.80,-44.79,-33.72,-49.73,-55.84,-54.60
2020/12/06 01:13:15+0000,-38.75,-43.04,-34.11,-49.85,-55.33,-55.08
2020/12/06 01:14:07+0000,-38.42,-45.59,-33.73,-50.01,-55.92,-55.31
2020/12/06 01:14:59+0000,-38.73,-44.15,-33.65,-49.48,-55.01,-54.85
2020/12/06 01:15:51+0000,-36.31,-46.14,-34.23,-49.63,-55.98,-54.83
2020/12/06 01:16:43+0000,-39.34,-45.89,-34.02,-50.02,-55.26,-54.95
2020/12/06 01:17:35+0000,-38.89,-45.84,-33.70,-50.28,-55.16,-55.41
2020/12/06 01:18:28+0000,-38.17,-45.64,-33.86,-49.84,-55.21,-54.94
2020/12/06 01:19:20+0000,-38.34,-48.13,-33.49,-49.94,-54.27,-55.02
2020/12/06 01:20:12+0000,-38.54,-47.39,-33.91,-49.70,-54.08,-55.57
2020/12/06 01:21:12+0000,-38.91,-47.72,-34.14,-49.74,-55.51,-55.29
2020/12/06 01:22:04+0000,-38.59,-43.33,-33.86,-49.97,-55.31,-54.83
2020/12/06 01:22:56+0000,-37.79,-44.59,-33.96,-49.03,-55.58,-54.93
2020/12/06 01:23:48+0000,-38.45,-47.54,-34.01,-50.19,-55.29,-55.40
2020/12/06 01:24:40+0000,-38.62,-48.38,-33.87,-50.11,-55.55,-55.52
2020/12/06 01:25:32+0000,-38.83,-44.24,-34.08,-49.31,-55.29,-55.14
2020/12/06 01:26:24+0000,-36.90,-44.37,-34.23,-50.46,-54.69,-54.65
2020/12/06 01:27:16+0000,-38.12,-47.68,-34.06,-50.25,-55.27,-55.23
2020/12/06 01:28:08+0000,-35.17,-47.69,-33.59,-50.37,-55.27,-54.72
2020/12/06 01:29:00+0000,-39.09,-47.20,-33.88,-51.03,-55.05,-55.15
2020/12/06 01:29:52+0000,-36.55,-48.41,-33.66,-51.43,-55.53,-55.25
2020/12/06 01:30:44+0000,-38.61,-46.25,-33.90,-51.21,-55.01,-54.80
2020/12/06 01:31:50+0000,-38.06,-47.14,-33.40,-50.44,-55.65,-55.02
2020/12/06 01:32:42+0000,-39.24,-45.64,-33.84,-51.34,-55.11,-55.35
2020/12/06 01:33:34+0000,-39.64,-47.08,-34.09,-51.01,-55.60,-54.77
2020/12/06 01:34:26+0000,-37.27,-47.85,-34.15,-52.30,-55.79,-55.00
2020/12/06 01:35:18+0000,-37.50,-46.27,-33.79,-51.65,-55.48,-55.04
2020/12/06 01:36:10+0000,-38.94,-47.93,-33.82,-51.05,-55.89,-55.53
2020/12/06 01:37:02+0000,-38.84,-47.62,-34.04,-51.28,-55.48,-54.58
2020/12/06 01:37:54+0000,-37.02,-47.06,-33.59,-53.10,-55.45,-55.24
2020/12/06 01:38:46+0000,-39.15,-44.68,-34.13,-52.20,-55.45,-54.83
2020/12/06 01:39:38+0000,-39.14,-47.31,-33.22,-52.06,-55.93,-54.97
2020/12/06 01:40:30+0000,-38.16,-47.59,-33.91,-52.37,-55.73,-55.01
2020/12/06 01:41:30+0000,-40.14,-47.50,-33.66,-52.44,-55.80,-55.54
2020/12/06 01:42:23+0000,-37.55,-48.60,-34.00,-52.43,-55.60,-55.03
2020/12/06 01:43:15+0000,-39.36,-47.80,-33.83,-52.41,-55.40,-55.27
2020/12/06 01:44:07+0000,-38.69,-48.59,-34.01,-52.00,-55.31,-54.39
2020/12/06 01:44:59+0000,-37.93,-47.37,-34.22,-51.94,-55.58,-54.46
2020/12/06 01:45:51+0000,-37.65,-47.43,-33.79,-52.16,-54.77,-54.98
2020/12/06 01:46:43+0000,-38.75,-45.57,-34.27,-52.60,-55.34,-54.95
2020/12/06 01:47:35+0000,-39.81,-47.62,-33.95,-53.19,-55.28,-55.13
2020/12/06 01:48:27+0000,-38.56,-47.98,-34.15,-52.04,-55.78,-55.01
2020/12/06 01:49:19+0000,-38.44,-45.37,-34.74,-53.01,-55.50,-54.41
2020/12/06 01:50:11+0000,-38.10,-47.98,-34.25,-51.80,-54.97,-55.14
2020/12/06 01:51:30+0000,-39.11,-48.07,-33.61,-52.68,-55.15,-54.79
2020/12/06 01:52:22+0000,-36.57,-48.55,-33.83,-53.09,-55.71,-54.19
2020/12/06 01:53:14+0000,-39.82,-48.02,-34.20,-53.04,-55.75,-54.63
2020/12/06 01:54:06+0000,-38.81,-47.96,-34.33,-52.77,-55.65,-54.65
2020/12/06 01:54:58+0000,-37.13,-47.79,-34.41,-52.57,-55.42,-55.07
2020/12/06 01:55:50+0000,-39.34,-47.59,-33.33,-53.07,-55.25,-54.91
2020/12/06 01:56:42+0000,-38.85,-47.85,-33.67,-53.34,-55.74,-54.54
2020/12/06 01:57:34+0000,-38.66,-46.69,-33.69,-53.14,-55.70,-55.25
2020/12/06 01:58:26+0000,-38.99,-46.24,-34.10,-53.09,-54.96,-47.07
2020/12/06 01:59:18+0000,-38.54,-47.52,-34.15,-52.88,-56.03,-54.74
2020/12/06 02:00:10+0000,-38.09,-47.56,-33.98,-52.95,-55.48,-55.47
2020/12/06 02:01:11+0000,-38.55,-48.12,-34.16,-52.97,-55.35,-55.43
2020/12/06 02:02:03+0000,-38.56,-48.30,-34.54,-53.11,-55.33,-55.23
2020/12/06 02:02:55+0000,-38.78,-47.54,-34.13,-52.88,-55.48,-54.71
2020/12/06 02:03:47+0000,-38.27,-47.19,-34.08,-52.69,-55.29,-55.22
2020/12/06 02:04:39+0000,-36.84,-47.82,-33.51,-53.34,-55.67,-54.84
2020/12/06 02:05:31+0000,-35.94,-47.96,-33.42,-53.17,-55.34,-54.99
2020/12/06 02:06:23+0000,-37.94,-47.59,-33.71,-51.84,-55.24,-55.31
2020/12/06 02:07:15+0000,-39.01,-46.40,-33.67,-53.06,-55.38,-54.63
2020/12/06 02:08:07+0000,-38.72,-47.81,-33.24,-51.61,-55.97,-54.68
2020/12/06 02:08:59+0000,-38.54,-47.13,-33.93,-52.56,-55.35,-54.78
2020/12/06 02:09:52+0000,-39.04,-48.13,-34.17,-52.57,-55.02,-54.78
2020/12/06 02:10:44+0000,-37.23,-46.52,-33.73,-44.94,-55.33,-54.89
2020/12/06 02:11:43+0000,-34.77,-46.74,-33.22,-44.32,-55.08,-52.72
2020/12/06 02:12:35+0000,-36.80,-47.32,-33.07,-44.96,-54.92,-53.28
2020/12/06 02:13:27+0000,-37.44,-46.44,-32.67,-45.39,-55.10,-52.93
2020/12/06 02:14:19+0000,-37.67,-45.40,-33.03,-44.61,-55.10,-53.35
2020/12/06 02:15:11+0000,-36.44,-46.27,-33.54,-43.13,-55.13,-52.75
2020/12/06 02:16:03+0000,-36.17,-46.42,-33.89,-45.45,-55.27,-53.07
2020/12/06 02:16:55+0000,-35.05,-46.68,-33.42,-43.01,-55.10,-52.88
2020/12/06 02:17:47+0000,-36.36,-45.25,-33.07,-43.77,-55.12,-53.44
2020/12/06 02:18:39+0000,-36.46,-46.19,-33.95,-44.28,-54.98,-53.33
2020/12/06 02:19:31+0000,-37.15,-46.62,-33.32,-43.71,-55.79,-53.65
2020/12/06 02:20:23+0000,-38.30,-46.76,-33.24,-43.20,-55.32,-52.78
2020/12/06 02:21:24+0000,-37.80,-46.20,-32.86,-43.25,-55.02,-53.05
2020/12/06 02:22:16+0000,-38.14,-46.66,-33.54,-43.12,-55.15,-53.67
2020/12/06 02:23:08+0000,-37.46,-46.29,-33.89,-42.88,-55.54,-53.28
2020/12/06 02:24:00+0000,-38.13,-45.02,-33.82,-42.57,-54.98,-54.06
2020/12/06 02:24:52+0000,-37.69,-45.85,-33.40,-44.48,-55.23,-53.83
2020/12/06 02:25:44+0000,-37.26,-46.54,-34.15,-43.57,-55.15,-53.92
2020/12/06 02:26:36+0000,-37.05,-48.41,-33.96,-43.49,-55.26,-53.47
2020/12/06 02:27:28+0000,-37.28,-46.66,-33.80,-43.99,-55.09,-53.00
2020/12/06 02:28:20+0000,-37.34,-47.74,-33.04,-44.00,-54.96,-53.34
2020/12/06 02:29:12+0000,-37.64,-47.86,-33.85,-44.23,-55.39,-53.45
2020/12/06 02:30:05+0000,-37.22,-46.74,-33.63,-44.52,-54.96,-53.81
2020/12/06 02:31:15+0000,-38.56,-46.39,-34.01,-44.08,-55.51,-53.07
2020/12/06 02:32:07+0000,-36.17,-47.56,-33.69,-44.54,-55.73,-53.67
2020/12/06 02:32:59+0000,-35.65,-46.51,-33.48,-44.13,-55.18,-53.89
2020/12/06 02:33:51+0000,-37.20,-47.62,-33.27,-44.14,-55.60,-54.05
2020/12/06 02:34:43+0000,-36.94,-46.77,-34.13,-43.56,-55.78,-53.73
2020/12/06 02:35:35+0000,-36.69,-46.32,-33.73,-43.36,-54.63,-53.63
2020/12/06 02:36:27+0000,-36.33,-47.24,-33.97,-43.34,-55.05,-53.80
2020/12/06 02:37:19+0000,-36.25,-46.45,-33.72,-42.07,-55.20,-53.90
2020/12/06 02:38:11+0000,-36.24,-46.25,-33.41,-41.79,-55.22,-54.07
2020/12/06 02:39:03+0000,-34.99,-46.63,-33.63,-42.37,-55.51,-53.69
2020/12/06 02:39:55+0000,-35.74,-47.60,-33.95,-43.07,-55.53,-53.86
2020/12/06 02:40:47+0000,-35.43,-46.68,-34.01,-42.58,-55.21,-53.46
2020/12/06 02:41:52+0000,-35.67,-48.47,-33.89,-43.32,-55.79,-53.82
2020/12/06 02:42:44+0000,-36.55,-46.58,-33.77,-42.77,-55.25,-53.67
2020/12/06 02:43:36+0000,-36.10,-47.05,-33.44,-43.12,-54.79,-53.28
2020/12/06 02:44:28+0000,-35.64,-47.12,-33.28,-42.28,-54.71,-53.25
2020/12/06 02:45:20+0000,-35.72,-45.29,-33.32,-43.47,-55.38,-53.82
2020/12/06 02:46:12+0000,-36.62,-45.45,-33.93,-43.25,-55.08,-54.02
2020/12/06 02:47:04+0000,-36.35,-46.48,-33.62,-43.20,-54.72,-52.92
2020/12/06 02:47:56+0000,-36.78,-46.47,-33.66,-42.98,-55.28,-53.14
2020/12/06 02:48:48+0000,-36.89,-45.40,-33.69,-42.78,-55.13,-52.52
2020/12/06 02:49:41+0000,-35.98,-45.27,-33.68,-43.55,-55.30,-52.70
2020/12/06 02:50:33+0000,-36.32,-45.92,-34.09,-44.11,-54.67,-52.93
2020/12/06 02:51:36+0000,-36.91,-45.99,-33.39,-43.26,-54.74,-52.90
2020/12/06 02:52:28+0000,-36.79,-45.87,-33.41,-42.89,-53.79,-52.88
2020/12/06 02:53:20+0000,-36.14,-45.87,-33.10,-42.91,-55.19,-52.65
2020/12/06 02:54:12+0000,-37.08,-45.97,-33.56,-43.36,-54.58,-52.86
2020/12/06 02:55:04+0000,-36.32,-46.08,-34.37,-43.69,-54.94,-53.37
2020/12/06 02:55:56+0000,-35.83,-46.62,-33.59,-43.54,-54.41,-53.19
2020/12/06 02:56:49+0000,-36.96,-44.48,-33.13,-43.39,-54.63,-53.00
2020/12/06 02:57:41+0000,-36.30,-45.15,-33.23,-44.04,-54.36,-53.00
2020/12/06 02:58:33+0000,-36.74,-46.16,-34.14,-43.74,-54.07,-53.26
2020/12/06 02:59:25+0000,-37.05,-46.89,-33.74,-44.20,-55.19,-53.09
2020/12/06 03:00:17+0000,-37.42,-46.06,-33.75,-42.46,-55.18,-53.03
2020/12/06 03:01:17+0000,-37.37,-46.66,-33.35,-43.00,-55.19,-52.68
2020/12/06 03:02:09+0000,-36.64,-45.16,-33.03,-43.34,-54.63,-53.15
2020/12/06 03:03:01+0000,-36.98,-47.48,-33.84,-43.25,-54.45,-53.34
2020/12/06 03:03:53+0000,-37.74,-46.95,-33.47,-43.39,-54.74,-53.36
2020/12/06 03:04:46+0000,-37.73,-44.39,-34.11,-42.77,-54.95,-53.64
2020/12/06 03:05:38+0000,-37.47,-45.23,-33.91,-42.92,-55.17,-53.66
2020/12/06 03:06:30+0000,-37.77,-45.47,-34.06,-43.62,-55.36,-53.14
2020/12/06 03:07:22+0000,-37.21,-47.90,-33.61,-42.77,-55.18,-53.15
2020/12/06 03:08:14+0000,-38.82,-46.71,-33.18,-43.27,-55.04,-53.05
2020/12/06 03:09:06+0000,-36.94,-47.67,-33.76,-43.85,-55.17,-53.75
2020/12/06 03:09:58+0000,-37.57,-46.70,-33.94,-43.17,-55.30,-53.37
2020/12/06 03:10:50+0000,-37.23,-46.46,-33.95,-44.07,-55.07,-53.43
2020/12/06 03:11:50+0000,-37.81,-46.81,-33.68,-42.77,-54.74,-53.42
2020/12/06 03:12:42+0000,-37.08,-47.36,-33.98,-43.62,-55.40,-53.42
2020/12/06 03:13:34+0000,-36.32,-45.71,-34.07,-43.01,-54.99,-53.17
2020/12/06 03:14:26+0000,-36.81,-47.10,-33.58,-44.72,-54.71,-53.46
2020/12/06 03:15:18+0000,-37.11,-47.19,-33.37,-43.68,-55.16,-53.70
2020/12/06 03:16:10+0000,-35.69,-46.30,-34.21,-42.82,-55.14,-53.32
2020/12/06 03:17:02+0000,-36.93,-45.63,-33.93,-43.24,-55.01,-53.40
2020/12/06 03:17:54+0000,-36.80,-45.91,-34.36,-42.86,-54.89,-53.35
2020/12/06 03:18:46+0000,-36.01,-44.49,-33.91,-43.86,-54.77,-53.71
2020/12/06 03:19:38+0000,-36.55,-44.91,-34.12,-44.09,-54.64,-52.78
2020/12/06 03:20:31+0000,-37.13,-44.74,-33.69,-44.00,-55.68,-53.17
2020/12/06 03:21:30+0000,-36.85,-46.51,-33.88,-44.57,-54.71,-52.84
2020/12/06 03:22:22+0000,-37.13,-48.10,-33.21,-44.05,-54.53,-53.24
2020/12/06 03:23:14+0000,-36.43,-46.39,-34.03,-43.42,-54.87,-53.03
2020/12/06 03:24:06+0000,-37.07,-48.59,-33.39,-43.46,-54.79,-52.52
2020/12/06 03:24:58+0000,-37.41,-46.08,-33.87,-44.21,-54.97,-53.08
2020/12/06 03:25:50+0000,-36.90,-48.05,-33.57,-43.83,-54.80,-53.71
2020/12/06 03:26:42+0000,-37.13,-46.20,-33.47,-43.35,-54.77,-52.85
2020/12/06 03:27:34+0000,-36.43,-47.33,-34.07,-43.40,-55.60,-53.57
2020/12/06 03:28:26+0000,-36.66,-43.60,-34.08,-44.29,-54.86,-52.84
2020/12/06 03:29:18+0000,-36.64,-43.66,-34.32,-43.93,-55.21,-52.92
2020/12/06 03:30:11+0000,-36.25,-43.87,-33.39,-44.02,-54.64,-53.28
2020/12/06 03:31:11+0000,-36.37,-43.61,-33.13,-43.44,-55.48,-53.65
2020/12/06 03:32:03+0000,-35.77,-45.34,-33.97,-43.84,-54.82,-53.62
2020/12/06 03:32:55+0000,-36.66,-45.27,-34.16,-44.71,-55.09,-53.74
2020/12/06 03:33:47+0000,-36.44,-44.43,-33.82,-43.97,-54.68,-53.39
2020/12/06 03:34:39+0000,-36.40,-43.23,-34.54,-44.68,-55.00,-53.47
2020/12/06 03:35:31+0000,-37.08,-44.70,-33.70,-43.80,-55.03,-52.85
2020/12/06 03:36:23+0000,-37.25,-45.58,-34.00,-43.91,-53.71,-53.22
2020/12/06 03:37:15+0000,-37.91,-42.43,-33.75,-44.65,-55.00,-53.21
2020/12/06 03:38:07+0000,-37.16,-44.36,-34.15,-44.36,-54.24,-52.95
2020/12/06 03:38:59+0000,-38.04,-44.15,-33.48,-43.89,-54.44,-53.04
2020/12/06 03:39:51+0000,-37.30,-44.47,-34.34,-43.93,-54.21,-53.21
2020/12/06 03:40:43+0000,-37.39,-41.85,-33.90,-43.52,-55.14,-52.99
2020/12/06 03:41:43+0000,-37.08,-42.53,-35.10,-44.09,-54.27,-52.44
2020/12/06 03:42:35+0000,-36.25,-43.64,-34.13,-42.97,-54.67,-53.22
2020/12/06 03:43:27+0000,-38.39,-43.12,-34.63,-43.74,-53.87,-53.35
2020/12/06 03:44:19+0000,-37.91,-41.49,-34.30,-42.27,-55.05,-52.97
2020/12/06 03:45:11+0000,-37.53,-43.33,-33.77,-43.13,-54.47,-52.96
2020/12/06 03:46:03+0000,-37.24,-43.55,-34.34,-43.91,-54.70,-53.59
2020/12/06 03:46:55+0000,-37.82,-43.50,-34.00,-42.71,-54.83,-54.08
2020/12/06 03:47:47+0000,-37.17,-43.99,-34.33,-42.54,-54.35,-53.76
2020/12/06 03:48:39+0000,-37.95,-44.56,-34.62,-43.39,-55.48,-53.87
2020/12/06 03:49:31+0000,-38.27,-45.36,-34.14,-43.16,-55.22,-54.26
2020/12/06 03:50:24+0000,-37.99,-45.20,-34.49,-43.23,-54.23,-53.90
2020/12/06 03:51:24+0000,-38.07,-44.42,-33.80,-42.82,-54.35,-54.20
2020/12/06 03:52:16+0000,-38.83,-42.84,-33.91,-42.11,-54.98,-54.97
2020/12/06 03:53:08+0000,-38.41,-44.55,-34.01,-42.70,-54.73,-54.20
2020/12/06 03:54:00+0000,-38.43,-43.99,-34.22,-42.65,-54.63,-54.11
2020/12/06 03:54:52+0000,-38.28,-43.75,-34.33,-43.09,-53.58,-54.62
2020/12/06 03:55:44+0000,-38.26,-42.63,-33.97,-41.96,-54.69,-53.67
2020/12/06 03:56:36+0000,-38.70,-43.56,-33.54,-42.90,-54.50,-53.95
2020/12/06 03:57:28+0000,-37.55,-44.41,-34.15,-41.96,-55.19,-53.72
2020/12/06 03:58:20+0000,-37.98,-42.41,-34.10,-42.66,-54.61,-54.16
2020/12/06 03:59:12+0000,-38.69,-43.49,-34.47,-42.54,-54.34,-53.75
2020/12/06 04:00:04+0000,-38.49,-43.25,-34.03,-42.90,-54.60,-54.52
2020/12/06 04:01:05+0000,-38.39,-44.69,-33.68,-42.94,-54.68,-54.11
2020/12/06 04:01:57+0000,-37.84,-44.51,-34.25,-42.62,-53.11,-54.06
2020/12/06 04:02:49+0000,-37.59,-43.79,-33.72,-42.50,-54.72,-53.80
2020/12/06 04:03:41+0000,-38.54,-44.41,-33.69,-43.03,-54.82,-53.68
2020/12/06 04:04:33+0000,-37.53,-43.78,-33.83,-42.96,-54.89,-53.24
2020/12/06 04:05:25+0000,-37.36,-41.95,-34.55,-42.19,-55.00,-53.88
2020/12/06 04:06:17+0000,-36.75,-43.84,-33.81,-43.23,-55.28,-53.73
2020/12/06 04:07:09+0000,-37.06,-44.53,-34.07,-42.09,-54.00,-54.17
2020/12/06 04:08:01+0000,-37.14,-43.11,-34.09,-42.80,-54.88,-53.84
2020/12/06 04:08:53+0000,-38.01,-42.38,-33.91,-42.08,-55.54,-53.74
2020/12/06 04:09:45+0000,-38.28,-45.30,-33.88,-42.62,-54.38,-53.75
2020/12/06 04:10:37+0000,-38.39,-45.32,-33.53,-42.53,-55.17,-54.30
2020/12/06 04:11:37+0000,-37.33,-44.20,-34.34,-43.07,-55.05,-54.44
2020/12/06 04:12:29+0000,-38.06,-44.60,-33.72,-43.49,-54.91,-54.42
2020/12/06 04:13:21+0000,-38.18,-44.54,-34.08,-43.35,-54.78,-53.89
2020/12/06 04:14:13+0000,-37.95,-45.37,-34.25,-43.22,-55.09,-54.36
2020/12/06 04:15:05+0000,-37.09,-44.90,-34.47,-44.48,-54.90,-54.05
2020/12/06 04:15:57+0000,-37.76,-44.55,-33.83,-43.11,-55.08,-54.55
2020/12/06 04:16:49+0000,-37.32,-45.24,-33.61,-53.11,-54.97,-54.34
2020/12/06 04:17:41+0000,-38.63,-44.88,-34.14,-52.59,-55.19,-53.93
2020/12/06 04:18:33+0000,-39.46,-45.02,-33.49,-52.59,-55.30,-54.41
2020/12/06 04:19:25+0000,-40.62,-46.27,-33.48,-52.68,-54.98,-54.68
2020/12/06 04:20:17+0000,-39.96,-45.90,-33.54,-52.23,-54.37,-54.46
2020/12/06 04:21:18+0000,-39.26,-45.06,-33.93,-52.49,-55.16,-54.01
2020/12/06 04:22:10+0000,-39.89,-45.62,-33.68,-52.75,-55.38,-54.14
2020/12/06 04:23:02+0000,-39.54,-45.71,-33.30,-52.35,-53.46,-54.10
2020/12/06 04:23:54+0000,-41.08,-45.91,-33.27,-52.16,-54.23,-54.05
2020/12/06 04:24:46+0000,-39.11,-46.02,-33.91,-52.25,-55.01,-54.12
2020/12/06 04:25:38+0000,-39.79,-45.49,-33.40,-52.57,-55.38,-54.36
2020/12/06 04:26:30+0000,-40.37,-45.93,-33.36,-52.02,-54.85,-54.44
2020/12/06 04:27:22+0000,-39.97,-45.29,-33.50,-52.55,-53.61,-54.46
2020/12/06 04:28:14+0000,-40.83,-45.84,-33.77,-51.66,-55.34,-53.85
2020/12/06 04:29:06+0000,-38.75,-46.33,-34.15,-52.96,-55.06,-54.10
2020/12/06 04:29:58+0000,-39.32,-45.37,-34.55,-52.75,-53.35,-53.87
2020/12/06 04:30:50+0000,-39.83,-45.83,-33.67,-52.77,-53.72,-54.45
2020/12/06 04:31:50+0000,-39.18,-45.48,-33.29,-52.30,-54.66,-53.65
2020/12/06 04:32:42+0000,-40.24,-46.11,-33.53,-52.51,-54.71,-53.73
2020/12/06 04:33:34+0000,-39.40,-44.86,-32.99,-52.39,-55.02,-53.51
2020/12/06 04:34:26+0000,-39.69,-43.98,-33.74,-52.16,-54.24,-53.79
2020/12/06 04:35:18+0000,-39.63,-45.59,-34.44,-52.38,-54.76,-53.37
2020/12/06 04:36:10+0000,-39.82,-44.88,-33.97,-53.59,-54.84,-53.95
2020/12/06 04:37:02+0000,-39.74,-44.80,-33.51,-52.91,-54.90,-53.95
2020/12/06 04:37:54+0000,-39.06,-45.78,-34.59,-53.09,-54.58,-54.30
2020/12/06 04:38:46+0000,-39.59,-45.03,-34.07,-52.81,-54.02,-54.26
2020/12/06 04:39:39+0000,-38.34,-45.36,-33.35,-52.82,-55.16,-53.74
2020/12/06 04:40:31+0000,-40.91,-45.35,-33.74,-52.99,-54.54,-54.19
2020/12/06 04:41:41+0000,-39.76,-45.20,-33.71,-53.13,-55.27,-54.04
2020/12/06 04:42:33+0000,-40.04,-44.92,-33.96,-52.36,-54.91,-54.17
2020/12/06 04:43:25+0000,-39.40,-45.56,-33.48,-52.81,-54.55,-53.79
2020/12/06 04:44:17+0000,-39.64,-44.96,-33.59,-53.27,-54.78,-53.76
2020/12/06 04:45:09+0000,-40.37,-45.80,-33.56,-52.48,-54.65,-53.99
2020/12/06 04:46:01+0000,-39.69,-45.67,-33.42,-52.80,-55.33,-54.04
2020/12/06 04:46:53+0000,-38.46,-45.98,-33.24,-52.53,-54.79,-53.73
2020/12/06 04:47:45+0000,-40.63,-46.35,-34.21,-52.57,-54.73,-54.39
2020/12/06 04:48:37+0000,-39.08,-45.77,-33.88,-52.73,-53.14,-54.15
2020/12/06 04:49:29+0000,-38.53,-45.08,-33.58,-52.88,-54.05,-54.36
2020/12/06 04:50:21+0000,-39.31,-45.78,-33.53,-53.56,-54.44,-54.05
2020/12/06 04:51:21+0000,-38.66,-46.09,-33.82,-52.38,-54.70,-53.16
2020/12/06 04:52:13+0000,-39.34,-46.59,-34.45,-52.55,-55.07,-54.87
2020/12/06 04:53:05+0000,-38.88,-45.79,-34.04,-52.42,-54.94,-54.48
2020/12/06 04:53:58+0000,-39.57,-45.28,-33.58,-52.61,-54.94,-53.94